CZ-6A DEB

Satellite information

Favourite Embed

Satellite Type and Status

DEBRISIN ORBIT

Key statistics

Satellite CZ-6A DEB at a glance.

Uptime

1129

Days in orbit

Revolutions

≈ 14.1

Per day

Orbit

SSO

Sun Synchronous Orbit

Inclination

98.9

Latest

Satellite identification and parameters

Extended collection of information and parameters for CZ-6A DEB.

Object identification

Identified? True

Debris? True

Object name: CZ-6A DEB

International designator: 2022-151AHC

Object number (NORAD): 56676

Object ID (CCSDS): 56676

Country: PEOPLES REPUBLIC OF CHINA (PRC)

Current information (Y/N): Y

RCS size: SMALL

Orbital parameters

Period: 102.146 minutes

Inclination: 98.8519 deg

SMA: 7238.384 km

Apoapsis: 893.054 km

Periapsis: 827.444 km

RAAN: 346.6301 deg

Eccentricy: 0.0045321

Argument of periapsis: 147.2417 deg

Mean anomaly: 213.1578 deg

Mean motion: 14.09744345 rev/day

Mean motion (dot): 0.00000365 rev/day2

B* drag term: 0.00023065 1/REarth

Two-line elements (TLE)

Creation date: Dec. 12, 2025, 7:26 a.m.

Reference frame: TEME

Reference center: EARTH

Epoch: Dec. 11, 2025, 10:26 p.m. UTC

TLE line 0: 0 CZ-6A DEB

TLE line 1: 1 56676U 22151AHC 25345.93507064 .00000365 00000-0 23065-3 0 9997

TLE line 2: 2 56676 98.8519 346.6301 0045321 147.2417 213.1578 14.09744345135441

Live tracking on map

Real-time ground track for satellite CZ-6A DEB.

In-orbit conjunctions

A list of the most updated potential collisions computed for object CZ-6A DEB.

Target Orbit TCA Probability of collision Miss distance Type
DELTA 1 DEB SSO 2024-12-15 19:18:36 0.0003929718 80.0 (m) DEBRIS
COSMOS 1275 DEB LEO 2024-12-06 09:37:34 0.0001184602 543.0 (m) DEBRIS
CZ-6A R/B SSO 2024-11-21 05:02:51 0.0001433951 585.0 (m) ROCKET BODY

Associated space launch

Chinese satellite reported for atmospheric/ocean/environmental/spatial parameter research purposes, details TBD.

CZ-6A DEB was lifted into orbit during the mission ‘Long March 6A | Yunhai 3’, on board a Long March 6A space rocket.

The launch took place on Nov. 11, 2022, 10:52 p.m. from Launch Complex 9A.

For more information about the launch, click the button.

Launch to space Long March 6A | Yunhai 3
Long March 6A | Yunhai 3

Agency: N/A

Status: Launch Successful

Launch date: Nov. 11, 2022, 10:52 p.m. UTC

Rocket: Long March 6A

Launch pad: Launch Complex 9A

Location: Taiyuan Satellite Launch Center, People's Republic of China

...

Latest news about this satellite

There are no fresh news available about this satellite. Check back as we update our databases every day.


Newsletter sign-up

Weekly statistics, charts and insights to help you stay on top of the space industry.